#timestamp,LO_Frequency,Hit,StdDev 
1568192415.8,286047002.8,N
1568192435.7,286047001.8,N
1568192455.5,286047004.2,N
1568192475.4,286047001.4,N
1568192495.2,286047000.2,N
1568192515.0,286046999.0,N
1568192515.9,286046999.0,N
1568192535.8,286046997.5,N
1568192555.6,286046993.7,N
1568192575.4,286046994.8,N
1568192595.3,286046994.3,N
1568192615.1,286046994.1,N
1568192635.9,286046993.5,N
1568192655.7,286046994.7,N
1568192675.5,286046992.2,N
1568192695.4,286046992.9,N
1568192715.2,286046994.7,N
1568192735.0,286046994.4,N
1568192735.9,286046994.4,N
1568192755.8,286046995.8,N
1568192775.6,286046997.5,N
1568192795.5,286046999.6,N
1568192815.3,286046997.4,N
1568192835.1,286046996.7,N
1568192855.9,286046997.7,N
1568192875.7,286046998.7,N
1568192895.5,286047001.2,N
1568192915.4,286047000.1,N
1568192935.2,286047002.6,N
1568192955.1,286047007.4,N
1568192956.0,286047007.4,N
1568192975.8,286047003.0,N
1568192995.6,286047002.4,N
1568193015.5,286046999.3,N
1568193035.3,286046996.2,N
1568193055.1,286046994.2,N
1568193075.9,286046993.6,N
1568193095.7,286046994.2,N
1568193115.6,286046994.2,N
1568193135.4,286046996.8,N
1568193155.2,286046995.9,N
1568193175.1,286046990.2,N
1568193176.0,286046990.2,N
1568193195.8,286046987.2,N
1568193215.6,286046989.2,N
1568193235.5,286046989.9,N
1568193255.3,286046989.8,N
1568193275.2,286046984.1,Y
1568193295.0,286046986.2,P
1568193295.9,286046986.2,N
1568193315.7,286046985.6,N
1568193335.6,286046983.9,Y
1568193355.4,286046999.1,P
1568193375.3,286046998.1,N
1568193395.1,286047000.4,N
1568193415.8,286047000.1,N
1568193435.7,286047003.7,N
1568193455.5,286047003.0,N
1568193475.3,286047002.9,N
1568193495.2,286047005.9,N
1568193515.0,286047007.1,N
1568193515.9,286047007.1,N
1568193535.8,286047008.3,N
1568193555.6,286047008.0,N
1568193575.4,286047010.8,N
1568193595.3,286047008.9,N
1568193615.1,286047008.0,N
1568193635.8,286047007.2,N
1568193655.7,286047008.4,N
1568193675.5,286047007.1,N
1568193695.4,286047008.2,N
1568193715.2,286047015.6,Y
1568193735.0,286047007.7,P
1568193735.9,286047007.7,P
1568193755.8,286047008.0,P
1568193775.6,286047010.5,Y
1568193795.5,286047005.3,P
1568193815.3,286047005.4,P
1568193835.1,286047005.7,P
1568193855.9,286047003.0,Y
1568193875.7,286047001.1,P
1568193895.5,286046997.0,N
1568193915.4,286046997.4,N
1568193935.2,286046996.0,N
1568193955.1,286046995.3,N
1568193956.0,286046995.3,N
1568193975.8,286046995.6,N
1568193995.6,286046994.5,N
1568194015.5,286046993.1,N
1568194035.3,286046990.3,N
1568194055.1,286046992.9,N
1568194075.9,286046994.5,N
1568194095.7,286046993.6,N
1568194115.6,286046997.8,N
1568194135.4,286046998.0,N
1568194155.2,286046995.1,N
1568194175.1,286046993.6,N
1568194176.0,286046993.6,N
1568194195.8,286046994.4,N
1568194215.6,286046993.1,N
1568194235.5,286046990.9,N
1568194255.3,286046991.0,N
1568194275.2,286046989.4,Y
1568194295.9,286046994.5,P
1568194315.7,286046994.3,P
1568194335.6,286046992.3,P
1568194355.4,286046993.1,Y
1568194375.2,286046997.2,P
1568194395.1,286046999.1,N
1568194396.0,286046999.1,N
1568194415.8,286047000.1,N
1568194435.7,286047002.4,N
1568194455.5,286047001.7,N
1568194475.3,286047005.7,N
1568194495.2,286047006.4,N
1568194515.9,286047005.8,N
1568194535.7,286047002.0,N
1568194555.6,286047000.5,N
1568194575.4,286046997.6,N
1568194595.3,286046994.2,N
1568194615.1,286046996.2,N
1568194616.0,286046996.2,N
1568194635.8,286046994.2,N
1568194655.7,286046994.0,N
1568194675.5,286046995.6,N
1568194695.3,286046999.1,N
1568194715.2,286046998.5,N
1568194735.0,286047002.7,N
1568194735.9,286047002.7,N
1568194755.8,286047003.9,N
1568194775.6,286047004.2,N
1568194795.4,286047003.9,N
1568194815.3,286047004.4,N
1568194835.1,286047000.0,N
1568194855.8,286047002.6,N
1568194875.7,286047002.1,N
1568194895.5,286047001.3,N
1568194915.4,286047003.9,N
1568194935.2,286047007.2,N
1568194955.0,286047004.1,N
1568194955.9,286047004.1,N
1568194975.8,286047001.8,N
1568194995.6,286047004.8,N
1568195015.4,286047006.8,N
1568195035.3,286047009.2,N
1568195055.1,286047006.3,N
1568195075.9,286047008.3,N
1568195095.7,286047009.0,N
1568195115.5,286047008.4,N
1568195135.4,286047006.2,N
1568195155.2,286047006.2,N
1568195175.0,286047007.5,N
1568195175.9,286047007.5,N
1568195195.8,286047006.6,N
1568195215.6,286047006.8,N
1568195235.5,286047004.6,N
1568195255.3,286047006.8,N
1568195275.1,286047006.5,N
1568195295.9,286047005.1,N
1568195315.7,286047000.5,N
1568195335.5,286046997.9,N
1568195355.4,286046993.9,N
1568195375.2,286046995.1,N
1568195395.1,286047001.1,N
1568195396.0,286047001.1,N
1568195415.8,286047000.9,N
1568195435.6,286047000.0,N
1568195455.5,286046998.8,N
1568195475.3,286046997.1,N
1568195495.1,286046995.8,N
1568195515.9,286046995.4,N
1568195535.7,286046996.9,N
1568195555.6,286046998.3,N
1568195575.4,286046996.7,N
1568195595.2,286046997.9,N
1568195615.1,286046999.5,N
1568195616.0,286046999.5,N
1568195635.8,286046996.5,N
1568195655.6,286047000.8,N
1568195675.5,286047000.4,N
1568195695.3,286047001.6,N
1568195715.2,286047004.4,N
1568195735.9,286047004.3,N
1568195755.7,286047004.6,N
1568195775.6,286047004.9,N
1568195795.4,286047007.3,N
1568195815.2,286047008.3,N
1568195835.1,286047011.6,Y
1568195836.0,286047011.6,P
1568195855.8,286047011.9,N
1568195875.7,286047010.2,N
1568195895.5,286047008.4,N
1568195915.3,286047008.0,N
1568195935.2,286047010.7,N
1568195955.0,286047008.9,N
1568195955.9,286047008.9,N
1568195975.7,286047006.1,N
1568195995.6,286047006.2,N
